x

Tanner Bank - 121nm West Of San Diego, Ca (46047) Wave Buoy

8:50 - Wed 20th Aug 2014 All times are PDT. -7 hours from GMT.

  • Sig Wave height 3.9ft
  • Swell Direction
  • Peak Period 12s
  • Average Period 8s
  • Wind
    7mph, 9mph gusts
  • Sea Temp 69°f
  • Ar Temp 66°f
  • Sea Pressure 1013.1mb
  • Tanner Bank - 121nm West Of San Diego, Ca
  • Tanner Bank - 121nm West Of San Diego, Ca

More Historic Weather Station data

Upgrade to MSW Pro to gain access to the past 30 days of data for over 8000 Wavebouys and Weather Stations around the globe.

Join Pro

Comparision Forecast

View Surf forecast
   
Qua 08/20 8:50 4ft 12s 8s 7 9 mph 1013.1mb 69f 66f
7:50 3.5ft 8s 7s 7 11 mph 1012.9mb 69f 66f
6:50 3.5ft 8s 7s 9 11 mph 1012.7mb 69f 66f
5:50 3.5ft 8s 7s 7 9 mph 1013.1mb 69f 66f
4:50 3.5ft 14s 8s 9 11 mph 1012.9mb 69f 66f
3:50 3.5ft 15s 7s 4 7 mph 1013.2mb 69f 66f
2:50 3.5ft 14s 8s 4 9 mph 1013.8mb 69f 66f
1:50 3.5ft 8s 7s 4 7 mph 1014.4mb 69f 66f
12:50 3.5ft 8s 7s 7 9 mph 1014.7mb 69f 66f
11:50 4ft 14s 7s 7 9 mph 1014.8mb 68f 65f
10:50 4ft 8s 7s 7 9 mph 1014.9mb 68f 65f
9:50 4ft 8s 7s 7 9 mph 1014.5mb 68f 65f
8:50 4ft 14s 7s 4 9 mph 1014mb 68f 65f
7:50 4.5ft 9s 7s 11 16 mph 1013.4mb 68f 65f
6:50 4.5ft 9s 7s 9 11 mph 1013mb 68f 65f
5:50 4.5ft 15s 7s 9 11 mph 1012.6mb 68f 65f
4:50 4.5ft 8s 7s 7 9 mph 1012.3mb 68f 65f
3:50 4.5ft 8s 7s 7 11 mph 1012.5mb 68f 65f
2:50 4.5ft 9s 7s 9 13 mph 1012.4mb 68f 65f
1:50 4.5ft 9s 6s 9 11 mph 1012.5mb 68f 65f
12:50 5ft 8s 6s 9 11 mph 1012.9mb 68f 65f
Ter 08/19 11:50 5ft 8s 6s 11 13 mph 1012.7mb 68f 65f
10:50 5.5ft 8s 6s 13 16 mph 1012.3mb 68f 65f
9:50 5.5ft 8s 6s 16 20 mph 1012.2mb 68f 65f
8:50 5.5ft 8s 6s 13 18 mph 1011.7mb 68f 65f
7:50 5ft 15s 6s 13 18 mph 1011.4mb 68f 65f
6:50 5ft 8s 7s 13 18 mph 1010.9mb 68f 65f
5:50 5ft 9s 7s 13 18 mph 1011.2mb 68f 66f
4:50 5ft 9s 7s 11 13 mph 1011.4mb 69f 66f
3:50 5.5ft 11s 7s 11 13 mph 1011.8mb 69f 65f
2:50 5ft 15s 7s 11 13 mph 1012.2mb 68f 65f
1:50 5ft 10s 7s 9 11 mph 1012.8mb 68f 65f
12:50 5ft 8s 7s 9 11 mph 1013mb 68f 65f
11:50 5ft 8s 7s 9 13 mph 1013.2mb 68f 65f
10:50 5ft 10s 6s 11 13 mph 1013.3mb 68f 65f
9:50 5ft 11s 6s 9 11 mph 1013mb 68f 64f
8:50 5ft 7s 6s 11 13 mph 1012.7mb 68f 64f
7:50 5ft 10s 6s 13 18 mph 1012.1mb 68f 64f
6:50 5ft 7s 6s 9 13 mph 1012.1mb 68f 64f
5:50 5.5ft 6s 6s 11 16 mph 1011.7mb 68f 64f
4:50 5ft 7s 6s 11 16 mph 1011.6mb 69f 64f
3:50 5.5ft 7s 6s 9 13 mph 1011.8mb 69f 64f
2:50 5.5ft 6s 6s 11 13 mph 1011.8mb 69f 64f
1:50 6ft 11s 6s 11 16 mph 1011.7mb 69f 64f
12:50 6ft 6s 6s 9 13 mph 1012.1mb 69f 64f
Seg 08/18 11:50 6ft 11s 6s 13 18 mph 1011.8mb 69f 64f
10:50 6ft 11s 6s 18 20 mph 1011.6mb 69f 65f
9:50 6ft 7s 6s 18 22 mph 1011.5mb 69f 65f
8:50  -   -   -  18 22 mph 1011.1mb 69f 65f
7:50 6ft 7s 6s 18 22 mph 1010.4mb 69f 65f
6:50 6.5ft 7s 6s 18 22 mph 1010.3mb 69f 65f
5:50 6ft 8s 6s 18 25 mph 1010.2mb 69f 66f
4:50 6ft 8s 6s 20 25 mph 1010.1mb 69f 65f
3:50 6.5ft 8s 6s 20 25 mph 1010.4mb 69f 66f
2:50 6ft 8s 6s 18 22 mph 1011.2mb 69f 65f
1:50 7ft 8s 6s 20 22 mph 1011.4mb 69f 65f
12:50 7ft 8s 6s 20 25 mph 1011.6mb 68f 65f
11:50 6.5ft 7s 6s 18 22 mph 1012.1mb 68f 65f
10:50 7ft 8s 6s 13 18 mph 1013.2mb 68f 64f
9:50 7ft 8s 6s 16 20 mph 1012.7mb 68f 64f
8:50 7.5ft 7s 6s 16 18 mph 1012.9mb 68f 64f
7:50 8ft 8s 6s 18 22 mph 1012.5mb 68f 64f
6:50  -   -   -  18 22 mph 1011.7mb 68f 64f
5:50 8ft 7s 6s 20 27 mph 1011.5mb 68f 64f
4:50 8ft 7s 6s 20 22 mph 1011.6mb 68f 65f
3:50 7ft 7s 6s 20 25 mph 1011.9mb 68f 64f
2:50 7ft 7s 6s 20 25 mph 1011.9mb 68f 64f
1:50 7ft 7s 6s 18 22 mph 1012.5mb 68f 64f
12:50 6.5ft 7s 6s 20 25 mph 1012.5mb 68f 65f
Dom 08/17 11:50 6.5ft 6s 6s 20 25 mph 1013mb 68f 64f
10:50 6ft 14s 6s 20 27 mph 1013mb 68f 64f
9:50 6ft 11s 6s 20 25 mph 1013mb 68f 64f
8:50 5.5ft 12s 6s 18 22 mph 1012.6mb 68f 65f
7:50 6ft 12s 6s 20 25 mph 1012.2mb 68f 65f
6:50 6.5ft 12s 6s 20 25 mph 1012.1mb 68f 65f
5:50 6ft 13s 6s 20 22 mph 1012.5mb 68f 65f
4:50 6ft 13s 6s 18 22 mph 1013.1mb 68f 66f
3:50 6ft 6s 6s 18 20 mph 1013.7mb 68f 65f
2:50 6ft 13s 6s 16 20 mph 1014.7mb 68f 65f
1:50 6ft 12s 6s 16 20 mph 1015.2mb 68f 65f
12:50 6.5ft 13s 6s 18 20 mph 1015.4mb 68f 65f
11:50 6ft 14s 6s 18 20 mph 1015.7mb 68f 65f
10:50 6ft 13s 6s 18 20 mph 1016mb 68f 65f
9:50 6ft 13s 6s 18 20 mph 1015.8mb 68f 65f
8:50 5.5ft 14s 6s 20 25 mph 1015.5mb 68f 65f
7:50 6ft 13s 6s 18 20 mph 1015.7mb 68f 65f
6:50 6ft 13s 6s 18 22 mph 1015.5mb 68f 65f
5:50 5.5ft 6s 6s 18 22 mph 1015mb 67f 65f
4:50 5.5ft 15s 6s 18 20 mph 1014.8mb 67f 65f